When you browse on this site, cookies collect data to enhance your experience and personalize the content and advertising you see.
Visit our Privacy Policy to learn more. By continuing to use the site, you agree to this use of cookies and data.
  • en Suisse
  • Liste des pays
  • À 7 jours
  • Température de l'eau
  • Carte météo
  • Widgets météo
  • user-avatar
    Se connecter

    Météo par heure à Warwick

    Ce jour, 21 Février, Vendredi

    Heure Température Précipitation Vent Pression Humidité
    00:00 +1°C° 0 mm 6 m/s 760 mmHg 84%
    01:00 +1°C° 0 mm 6 m/s 760 mmHg 84%
    02:00 +1°C° 0 mm 6 m/s 760 mmHg 84%
    03:00 +1°C° 0 mm 6 m/s 759 mmHg 84%
    04:00 +2°C° 0 mm 6 m/s 760 mmHg 86%
    05:00 +2°C° 0 mm 6 m/s 760 mmHg 87%
    06:00 +2°C° 0 mm 6 m/s 760 mmHg 88%
    13:00 +6°C° 0 mm 10 m/s 759 mmHg 77%
    14:00 +7°C° 0 mm 10 m/s 758 mmHg 77%
    15:00 +7°C° 0 mm 10 m/s 757 mmHg 77%
    16:00 +7°C° 0 mm 10 m/s 757 mmHg 78%
    17:00 +7°C° 0 mm 10 m/s 757 mmHg 78%
    18:00 +7°C° 0 mm 9 m/s 757 mmHg 79%
    19:00 +7°C° 0 mm 10 m/s 756 mmHg 79%
    20:00 +7°C° 0 mm 10 m/s 756 mmHg 79%
    21:00 +7°C° 0 mm 10 m/s 756 mmHg 79%
    22:00 +7°C° 0 mm 11 m/s 755 mmHg 80%
    23:00 +7°C° 0 mm 11 m/s 755 mmHg 80%

    Demain, 22 Février, Samedi

    Heure Température Précipitation Vent Pression Humidité
    00:00 +8°C° 0 mm 12 m/s 754 mmHg 81%
    01:00 +8°C° 0.2 mm 12 m/s 754 mmHg 83%
    02:00 +8°C° 0.2 mm 12 m/s 753 mmHg 85%
    03:00 +9°C° 0.2 mm 12 m/s 752 mmHg 86%
    04:00 +9°C° 0.2 mm 11 m/s 752 mmHg 84%
    05:00 +9°C° 0.2 mm 11 m/s 753 mmHg 82%
    06:00 +9°C° 0.2 mm 10 m/s 753 mmHg 79%
    07:00 +8°C° 0 mm 10 m/s 754 mmHg 78%
    08:00 +7°C° 0 mm 9 m/s 755 mmHg 77%
    09:00 +6°C° 0 mm 9 m/s 756 mmHg 76%
    10:00 +6°C° 0 mm 9 m/s 756 mmHg 74%
    11:00 +6°C° 0 mm 9 m/s 757 mmHg 72%
    12:00 +6°C° 0 mm 9 m/s 757 mmHg 70%
    13:00 +6°C° 0.1 mm 9 m/s 758 mmHg 69%
    14:00 +6°C° 0.1 mm 9 m/s 758 mmHg 69%
    15:00 +6°C° 0.1 mm 9 m/s 758 mmHg 68%
    16:00 +6°C° 0 mm 8 m/s 758 mmHg 69%
    17:00 +5°C° 0 mm 8 m/s 759 mmHg 70%
    18:00 +4°C° 0 mm 7 m/s 759 mmHg 71%
    19:00 +4°C° 0 mm 7 m/s 759 mmHg 72%
    20:00 +4°C° 0 mm 7 m/s 760 mmHg 74%
    21:00 +4°C° 0 mm 7 m/s 760 mmHg 75%
    22:00 +4°C° 0 mm 6 m/s 760 mmHg 77%
    23:00 +4°C° 0 mm 6 m/s 760 mmHg 78%

    Après-demain, 23 Février, Dimanche

    Heure Température Précipitation Vent Pression Humidité
    00:00 +4°C° 0 mm 6 m/s 760 mmHg 80%
    01:00 +5°C° 0.7 mm 6 m/s 758 mmHg 85%
    02:00 +5°C° 0.7 mm 6 m/s 757 mmHg 89%
    03:00 +5°C° 0.7 mm 6 m/s 756 mmHg 94%
    04:00 +7°C° 0.9 mm 8 m/s 754 mmHg 92%
    05:00 +8°C° 0.9 mm 10 m/s 753 mmHg 90%
    06:00 +10°C° 0.9 mm 12 m/s 751 mmHg 88%
    07:00 +10°C° 0.3 mm 12 m/s 751 mmHg 87%
    08:00 +10°C° 0.3 mm 12 m/s 751 mmHg 86%
    09:00 +10°C° 0.3 mm 12 m/s 750 mmHg 85%
    10:00 +10°C° 0.1 mm 12 m/s 751 mmHg 83%
    11:00 +11°C° 0.1 mm 11 m/s 752 mmHg 81%
    12:00 +9°C° 0.1 mm 11 m/s 753 mmHg 79%
    13:00 +8°C° 0 mm 10 m/s 755 mmHg 76%
    14:00 +7°C° 0 mm 9 m/s 756 mmHg 74%
    15:00 +5°C° 0 mm 9 m/s 758 mmHg 71%
    16:00 +4°C° 0 mm 7 m/s 759 mmHg 74%
    17:00 +3°C° 0 mm 5 m/s 760 mmHg 77%
    18:00 +3°C° 0 mm 3 m/s 761 mmHg 80%
    19:00 +3°C° 0 mm 3 m/s 762 mmHg 80%
    20:00 +2°C° 0 mm 3 m/s 762 mmHg 81%
    21:00 +2°C° 0 mm 3 m/s 763 mmHg 82%
    22:00 +3°C° 0 mm 2 m/s 763 mmHg 81%
    23:00 +3°C° 0 mm 2 m/s 763 mmHg 81%

    24 Février, Lundi

    Heure Température Précipitation Vent Pression Humidité
    00:00 +3°C° 0 mm 2 m/s 763 mmHg 81%
    01:00 +4°C° 0 mm 2 m/s 762 mmHg 80%
    02:00 +3°C° 0 mm 3 m/s 761 mmHg 79%
    03:00 +3°C° 0 mm 4 m/s 760 mmHg 78%
    04:00 +3°C° 0 mm 5 m/s 759 mmHg 80%
    05:00 +3°C° 0 mm 6 m/s 758 mmHg 82%
    06:00 +3°C° 0 mm 7 m/s 757 mmHg 84%
    07:00 +5°C° 0 mm 7 m/s 756 mmHg 85%
    08:00 +6°C° 0 mm 8 m/s 755 mmHg 86%
    09:00 +9°C° 0 mm 8 m/s 754 mmHg 87%
    10:00 +8°C° 0 mm 9 m/s 753 mmHg 85%
    11:00 +8°C° 0 mm 10 m/s 752 mmHg 84%
    12:00 +8°C° 0 mm 10 m/s 752 mmHg 83%
    13:00 +8°C° 0.2 mm 10 m/s 751 mmHg 84%
    14:00 +9°C° 0.2 mm 10 m/s 750 mmHg 85%
    15:00 +9°C° 0.2 mm 10 m/s 750 mmHg 86%
    16:00 +8°C° 0 mm 9 m/s 750 mmHg 83%
    17:00 +6°C° 0 mm 8 m/s 750 mmHg 80%
    18:00 +5°C° 0 mm 7 m/s 750 mmHg 77%
    19:00 +4°C° 0 mm 7 m/s 751 mmHg 78%
    20:00 +4°C° 0 mm 7 m/s 751 mmHg 78%
    21:00 +3°C° 0 mm 6 m/s 751 mmHg 78%
    22:00 +2°C° 0 mm 6 m/s 751 mmHg 78%
    23:00 +2°C° 0 mm 6 m/s 751 mmHg 77%

    25 Février, Mardi

    Heure Température Précipitation Vent Pression Humidité
    00:00 +2°C° 0 mm 6 m/s 751 mmHg 77%
    01:00 +1°C° 0 mm 6 m/s 751 mmHg 78%
    02:00 +1°C° 0 mm 6 m/s 751 mmHg 79%
    03:00 +1°C° 0 mm 6 m/s 750 mmHg 79%
    04:00 +1°C° 0 mm 6 m/s 750 mmHg 80%
    05:00 +1°C° 0 mm 6 m/s 750 mmHg 81%
    06:00 +1°C° 0 mm 6 m/s 750 mmHg 81%
    07:00 +1°C° 0 mm 6 m/s 750 mmHg 81%
    08:00 0°C° 0 mm 7 m/s 749 mmHg 80%
    09:00 +2°C° 0 mm 7 m/s 749 mmHg 80%
    10:00 +3°C° 0.1 mm 7 m/s 748 mmHg 77%
    11:00 +4°C° 0.1 mm 8 m/s 748 mmHg 73%
    12:00 +5°C° 0.1 mm 8 m/s 747 mmHg 70%
    13:00 +5°C° 0.2 mm 8 m/s 746 mmHg 74%
    14:00 +4°C° 0.2 mm 8 m/s 746 mmHg 77%
    15:00 +4°C° 0.2 mm 8 m/s 745 mmHg 80%
    16:00 +2°C° 0.2 mm 8 m/s 744 mmHg 80%
    17:00 +2°C° 0.2 mm 8 m/s 744 mmHg 79%
    18:00 +2°C° 0.2 mm 7 m/s 744 mmHg 78%
    19:00 0°C° 0 mm 7 m/s 744 mmHg 77%
    20:00 0°C° 0 mm 7 m/s 745 mmHg 76%
    21:00 -1°C° 0 mm 7 m/s 746 mmHg 75%
    22:00 -1°C° 0 mm 8 m/s 746 mmHg 75%
    23:00 -1°C° 0 mm 8 m/s 746 mmHg 75%

    26 Février, Mercredi

    Heure Température Précipitation Vent Pression Humidité
    00:00 -1°C° 0 mm 8 m/s 746 mmHg 75%
    01:00 -2°C° 0 mm 8 m/s 746 mmHg 75%
    02:00 -2°C° 0 mm 8 m/s 746 mmHg 75%
    03:00 -2°C° 0 mm 8 m/s 746 mmHg 75%
    04:00 -2°C° 0.1 mm 7 m/s 747 mmHg 74%
    05:00 -2°C° 0.1 mm 7 m/s 747 mmHg 73%
    06:00 -2°C° 0.1 mm 6 m/s 747 mmHg 73%
    07:00 -1°C° 0 mm 7 m/s 747 mmHg 71%
    08:00 0°C° 0 mm 8 m/s 748 mmHg 69%
    09:00 0°C° 0 mm 9 m/s 748 mmHg 68%
    10:00 +1°C° 0.1 mm 9 m/s 748 mmHg 67%
    11:00 +2°C° 0.1 mm 10 m/s 749 mmHg 66%
    12:00 +2°C° 0.1 mm 10 m/s 749 mmHg 65%
    13:00 +3°C° 0.1 mm 10 m/s 749 mmHg 63%
    14:00 +3°C° 0.1 mm 9 m/s 749 mmHg 62%
    15:00 +3°C° 0.1 mm 9 m/s 749 mmHg 61%
    16:00 +2°C° 0 mm 8 m/s 749 mmHg 65%
    17:00 +2°C° 0 mm 7 m/s 750 mmHg 70%
    18:00 +1°C° 0 mm 6 m/s 750 mmHg 74%
    19:00 0°C° 0 mm 5 m/s 750 mmHg 76%
    20:00 0°C° 0 mm 5 m/s 751 mmHg 79%
    21:00 -1°C° 0 mm 5 m/s 751 mmHg 81%
    22:00 -1°C° 0 mm 5 m/s 752 mmHg 82%
    23:00 -1°C° 0 mm 4 m/s 752 mmHg 82%
    Voir plus